Location: Barruelo
(41.2448°N, 3.8231°W)
Time: 20:54:50
(UTC+00:00)

NOSS 3-2 (C) - Pass Details

Date: 11 December 2025
Orbit: 672 x 1536 km, 63.4° (Epoch: 02 January)

Event Time Altitude Azimuth Distance (km) Brightness Sun altitude
Rises 17:29:12 0° 226° (SW) 3,050 7.6 -8.0°
Reaches altitude 10° 17:31:25 10° 230° (SW) 2,183 6.8 -8.4°
Maximum altitude 17:36:16 58° 310° (NW) 908 3.6 -9.2°
Drops below altitude 10° 17:42:01 10° 29° (NNE) 2,583 5.3 -10.2°
Enters shadow 17:43:09 - 31° (NNE) 3,009 5.6 -10.4°
